Location: Rometta
(44.2000°N, 10.0500°E)
Time: 17:32:31
(UTC+00:00)

Helios 1A Rocket - Pass Details

Date: 20 January 2021
Orbit: 562 x 587 km, 98.3° (Epoch: 28 February)

Event Time Altitude Azimuth Distance (km) Brightness Sun altitude
Rises 18:33:44 0° 180° (S) 2,793 6.5 -24.8°
Reaches altitude 10° 18:35:57 10° 186° (S) 1,901 5.7 -25.2°
Maximum altitude 18:39:55 46° 260° (W) 796 3.9 -25.9°
Drops below altitude 10° 18:43:56 10° 334° (NNW) 1,920 5.8 -26.7°
Sets 18:46:11 0° 341° (NNW) 2,826 6.7 -27.1°
